Weather in Popasna

Ukraine / Luhansk Region     48°38′01″N   38°22′35″E
temp.,
°C
wind,
m/s
gust,
m/s
humid.,
%
clouds,
%
prec.,
mm/h
press.,
hPa
HPBL,
m
19 september, sun
sun1900:00+16se51449100 0.0 1013371
03:00+15se51163100 0.0 1012365
06:00+16se5116294 0.0 1011376
09:00+16se51269100 0.9 1011429
12:00+17se61371100 0.3 1010860
15:00+17sse41177100 6.1 1009729
18:00+16s51093100 12.9 1009419
21:00+15s2596100 13.9 1008167
20 september, mon
mon2000:00+15s2393100 1.9 100858
03:00+14ssw359220 1.9 100879
06:00+13sw38877 0.0 1008156
09:00+17sw696859 0.0 1009580
12:00+20wsw79515 0.0 10101401
15:00+20wsw7113920 0.0 10101979
18:00+17sw6104984 0.0 1010654
21:00+15w365813 0.0 1012260
21 september, tue
tue2100:00+13wnw226099 0.0 101219
03:00+11wnw2266100 0.0 101330
06:00+10wsw2268100 0.0 101346
09:00+13wsw345884 0.0 1013665
12:00+12sw5663100 0.0 1013729
15:00+14wsw575756 0.0 10121268
18:00+12wnw585246 0.0 1012439
21:00+8wnw49725 0.0 1014434
22 september, wed
wed2200:00+8w487892 0.0 1014655
03:00+8wnw5778100 0.0 1014802
06:00+7w4681100 0.0 1015840
09:00+8w4673100 0.0 1015864
12:00+9w4568100 0.0 1015981
15:00+10w4561100 0.1 10151191
18:00+10w346197 0.0 1015758
21:00+9wnw1264100 0.0 1016111
23 september, thu
thu2300:00+9sw0166100 0.0 101631
03:00+9e1168100 0.0 101540
06:00+8e2470100 0.0 1015158
09:00+11ese3563100 0.0 1014550
12:00+12sse3559100 0.0 10141272
15:00+14sse2555100 0.1 10121587
18:00+12wnw3468100 0.0 1013140
21:00+10nw3477100 0.1 1014210